NORTHEAST SUFFOLK  -  Rip Current Statement Rip Current Statement        NORTHERN NASSAU  -  Rip Current Statement Rip Current Statement        NORTHERN QUEENS  -  Rip Current Statement Rip Current Statement        NORTHWEST SUFFOLK  -  Rip Current Statement Rip Current Statement        SOUTHEAST SUFFOLK  -  Rip Current Statement Rip Current Statement        SOUTHERN NASSAU  -  Rip Current Statement Rip Current Statement        SOUTHERN QUEENS  -  Rip Current Statement Rip Current Statement        SOUTHWEST SUFFOLK  -  Rip Current Statement Rip Current Statement      

Active alerts

Northern Queens
  Details for Northern Queens Rip Current Statement
Southern Queens
  Details for Southern Queens Rip Current Statement
Northern Nassau
  Details for Northern Nassau Rip Current Statement
Southern Nassau
  Details for Southern Nassau Rip Current Statement
Northwest Suffolk
  Details for Northwest Suffolk Rip Current Statement
Southwest Suffolk
  Details for Southwest Suffolk Rip Current Statement
Northeast Suffolk
  Details for Northeast Suffolk Rip Current Statement
Southeast Suffolk
  Details for Southeast Suffolk Rip Current Statement


WXM80 ListenWXM80 Stop

You find our weather info also at:

UK Metoffice

WeatherCloud

Weather Underground

Northeastern Weather Network

AWEKAS

Citizen Weather Observer Program (CWOP)

HAMweather, WeatherForYou, PWS Weather


Weather Underground History page Text

Daily Summary for September 18, 2017 Units:  Both    English   Metric
« Previous Day
Next Day »
Daily Weekly Monthly Yearly Custom
  High: Low: Average:
Temperature: 73.6 °F /  23.1 °C 67.3 °F /  19.6 °C 69.8 °F /  21 °C
Dew Point: 69.8 °F /  21 °C 65.6 °F /  18.7 °C 67.8 °F /  19.9 °C
Humidity: 97 % 87 % 93 %
Wind Speed: 5.9 mph /  9.5 km/h - 1.9 mph /  3.1 km/h
Wind Gust: 10.4 mph /  16.7 km/h - -
Wind:- - ENE
Pressure: 30.08 in /  1018.5 hPa 30.01 in /  1016.1 hPa -
Precipitation: 0.02 in /  0.51 mm    
Historical Graphs
 
 
Tabular Data for September 18, 2017
Time Temperature Dew Point Pressure Wind Wind Speed Wind Gust Humidity Rainfall Rate (Hourly)
00:01 67.4 °F /  19.7 °C 65.6 °F /  18.7 °C 30.07 in /  1018.2 hPa Calm     94 % 0.00 in /  0 mm
00:06 67.4 °F /  19.7 °C 65.6 °F /  18.7 °C 30.07 in /  1018.2 hPa Calm   1.0 mph /  1.6 km/h 94 % 0.00 in /  0 mm
00:11 67.5 °F /  19.7 °C 65.7 °F /  18.7 °C 30.07 in /  1018.2 hPa Calm   1.0 mph /  1.6 km/h 94 % 0.00 in /  0 mm
00:16 67.5 °F /  19.7 °C 65.7 °F /  18.7 °C 30.07 in /  1018.2 hPa Calm   1.0 mph /  1.6 km/h 94 % 0.00 in /  0 mm
00:21 67.5 °F /  19.7 °C 65.7 °F /  18.7 °C 30.07 in /  1018.2 hPa Calm     94 % 0.00 in /  0 mm
00:26 67.6 °F /  19.8 °C 65.8 °F /  18.8 °C 30.07 in /  1018.2 hPa Calm   1.0 mph /  1.6 km/h 94 % 0.00 in /  0 mm
00:31 67.6 °F /  19.8 °C 65.8 °F /  18.8 °C 30.07 in /  1018.2 hPa ENE 1.5 mph /  2.4 km/h 3.0 mph /  4.8 km/h 94 % 0.00 in /  0 mm
00:36 67.6 °F /  19.8 °C 65.8 °F /  18.8 °C 30.07 in /  1018.2 hPa Calm   3.0 mph /  4.8 km/h 94 % 0.00 in /  0 mm
00:41 67.7 °F /  19.8 °C 65.9 °F /  18.8 °C 30.07 in /  1018.2 hPa ENE 0.6 mph /  1 km/h 2.0 mph /  3.2 km/h 94 % 0.00 in /  0 mm
00:46 67.7 °F /  19.8 °C 65.9 °F /  18.8 °C 30.06 in /  1017.8 hPa NE 2.0 mph /  3.2 km/h 3.0 mph /  4.8 km/h 94 % 0.00 in /  0 mm
00:51 67.7 °F /  19.8 °C 65.9 °F /  18.8 °C 30.06 in /  1017.8 hPa Calm   3.0 mph /  4.8 km/h 94 % 0.00 in /  0 mm
00:56 67.7 °F /  19.8 °C 65.9 °F /  18.8 °C 30.06 in /  1017.8 hPa NNE 1.3 mph /  2.1 km/h 3.5 mph /  5.6 km/h 94 % 0.00 in /  0 mm
01:01 67.7 °F /  19.8 °C 65.9 °F /  18.8 °C 30.07 in /  1018.2 hPa ENE 0.2 mph /  0.3 km/h 3.5 mph /  5.6 km/h 94 % 0.00 in /  0 mm
01:06 67.7 °F /  19.8 °C 65.9 °F /  18.8 °C 30.07 in /  1018.2 hPa Calm     94 % 0.00 in /  0 mm
01:11 67.7 °F /  19.8 °C 65.9 °F /  18.8 °C 30.07 in /  1018.2 hPa Calm     94 % 0.00 in /  0 mm
01:16 67.6 °F /  19.8 °C 65.8 °F /  18.8 °C 30.07 in /  1018.2 hPa Calm   1.2 mph /  1.9 km/h 94 % 0.00 in /  0 mm
01:21 67.6 °F /  19.8 °C 65.8 °F /  18.8 °C 30.07 in /  1018.2 hPa Calm     94 % 0.00 in /  0 mm
01:26 67.7 °F /  19.8 °C 65.9 °F /  18.8 °C 30.07 in /  1018.2 hPa Calm     94 % 0.00 in /  0 mm
01:31 67.7 °F /  19.8 °C 65.9 °F /  18.8 °C 30.07 in /  1018.2 hPa Calm     94 % 0.00 in /  0 mm
01:36 67.7 °F /  19.8 °C 65.9 °F /  18.8 °C 30.07 in /  1018.2 hPa Calm   2.3 mph /  3.7 km/h 94 % 0.00 in /  0 mm
01:41 67.7 °F /  19.8 °C 65.9 °F /  18.8 °C 30.07 in /  1018.2 hPa Calm   1.2 mph /  1.9 km/h 94 % 0.00 in /  0 mm
01:46 67.7 °F /  19.8 °C 65.9 °F /  18.8 °C 30.07 in /  1018.2 hPa NE 0.1 mph /  0.2 km/h 1.2 mph /  1.9 km/h 94 % 0.00 in /  0 mm
01:51 67.7 °F /  19.8 °C 65.9 °F /  18.8 °C 30.07 in /  1018.2 hPa NE 0.1 mph /  0.2 km/h 1.2 mph /  1.9 km/h 94 % 0.00 in /  0 mm
01:56 67.7 °F /  19.8 °C 65.9 °F /  18.8 °C 30.07 in /  1018.2 hPa Calm     94 % 0.00 in /  0 mm
02:01 67.7 °F /  19.8 °C 65.9 °F /  18.8 °C 30.06 in /  1017.8 hPa Calm     94 % 0.00 in /  0 mm
02:07 67.7 °F /  19.8 °C 65.9 °F /  18.8 °C 30.06 in /  1017.8 hPa Calm     94 % 0.00 in /  0 mm
02:12 67.7 °F /  19.8 °C 65.9 °F /  18.8 °C 30.06 in /  1017.8 hPa Calm     94 % 0.00 in /  0 mm
02:17 67.7 °F /  19.8 °C 65.9 °F /  18.8 °C 30.06 in /  1017.8 hPa Calm     94 % 0.00 in /  0 mm
02:22 67.7 °F /  19.8 °C 65.9 °F /  18.8 °C 30.06 in /  1017.8 hPa Calm   1.2 mph /  1.9 km/h 94 % 0.00 in /  0 mm
02:27 67.7 °F /  19.8 °C 65.9 °F /  18.8 °C 30.06 in /  1017.8 hPa Calm     94 % 0.00 in /  0 mm
02:32 67.7 °F /  19.8 °C 65.9 °F /  18.8 °C 30.06 in /  1017.8 hPa Calm     94 % 0.00 in /  0 mm
02:37 67.6 °F /  19.8 °C 65.8 °F /  18.8 °C 30.06 in /  1017.8 hPa Calm     94 % 0.00 in /  0 mm
02:42 67.6 °F /  19.8 °C 65.8 °F /  18.8 °C 30.06 in /  1017.8 hPa Calm     94 % 0.00 in /  0 mm
02:47 67.6 °F /  19.8 °C 66.1 °F /  18.9 °C 30.06 in /  1017.8 hPa Calm   1.2 mph /  1.9 km/h 95 % 0.00 in /  0 mm
02:52 67.6 °F /  19.8 °C 66.1 °F /  18.9 °C 30.06 in /  1017.8 hPa Calm     95 % 0.00 in /  0 mm
02:57 67.6 °F /  19.8 °C 66.1 °F /  18.9 °C 30.06 in /  1017.8 hPa Calm     95 % 0.00 in /  0 mm
03:02 67.5 °F /  19.7 °C 66.0 °F /  18.9 °C 30.06 in /  1017.8 hPa Calm     95 % 0.00 in /  0 mm
03:07 67.5 °F /  19.7 °C 66.0 °F /  18.9 °C 30.06 in /  1017.8 hPa Calm     95 % 0.00 in /  0 mm
03:13 67.5 °F /  19.7 °C 66.0 °F /  18.9 °C 30.06 in /  1017.8 hPa ESE 0.3 mph /  0.5 km/h   95 % 0.00 in /  0 mm
03:18 67.5 °F /  19.7 °C 66.0 °F /  18.9 °C 30.05 in /  1017.5 hPa Calm     95 % 0.00 in /  0 mm
03:23 67.5 °F /  19.7 °C 66.0 °F /  18.9 °C 30.05 in /  1017.5 hPa Calm     95 % 0.00 in /  0 mm
03:28 67.5 °F /  19.7 °C 66.0 °F /  18.9 °C 30.05 in /  1017.5 hPa Calm     95 % 0.00 in /  0 mm
03:33 67.4 °F /  19.7 °C 65.9 °F /  18.8 °C 30.05 in /  1017.5 hPa Calm     95 % 0.00 in /  0 mm
03:38 67.4 °F /  19.7 °C 65.9 °F /  18.8 °C 30.05 in /  1017.5 hPa SE 0.9 mph /  1.4 km/h 2.3 mph /  3.7 km/h 95 % 0.00 in /  0 mm
03:43 67.4 °F /  19.7 °C 65.9 °F /  18.8 °C 30.05 in /  1017.5 hPa Calm     95 % 0.00 in /  0 mm
03:48 67.4 °F /  19.7 °C 65.9 °F /  18.8 °C 30.05 in /  1017.5 hPa Calm     95 % 0.00 in /  0 mm
03:53 67.4 °F /  19.7 °C 65.9 °F /  18.8 °C 30.05 in /  1017.5 hPa Calm   1.2 mph /  1.9 km/h 95 % 0.00 in /  0 mm
03:58 67.4 °F /  19.7 °C 65.9 °F /  18.8 °C 30.05 in /  1017.5 hPa Calm     95 % 0.00 in /  0 mm
04:03 67.4 °F /  19.7 °C 65.9 °F /  18.8 °C 30.05 in /  1017.5 hPa SE 0.1 mph /  0.2 km/h 1.2 mph /  1.9 km/h 95 % 0.00 in /  0 mm
04:08 67.5 °F /  19.7 °C 66.0 °F /  18.9 °C 30.05 in /  1017.5 hPa Calm   1.2 mph /  1.9 km/h 95 % 0.00 in /  0 mm
04:14 67.5 °F /  19.7 °C 66.0 °F /  18.9 °C 30.05 in /  1017.5 hPa Calm     95 % 0.00 in /  0 mm
04:19 67.5 °F /  19.7 °C 66.0 °F /  18.9 °C 30.05 in /  1017.5 hPa Calm     95 % 0.00 in /  0 mm
04:29 67.5 °F /  19.7 °C 66.0 °F /  18.9 °C 30.05 in /  1017.5 hPa Calm     95 % 0.00 in /  0 mm
04:34 67.5 °F /  19.7 °C 66.3 °F /  19.1 °C 30.05 in /  1017.5 hPa Calm     96 % 0.00 in /  0 mm
04:39 67.5 °F /  19.7 °C 66.3 °F /  19.1 °C 30.05 in /  1017.5 hPa Calm     96 % 0.00 in /  0 mm
04:44 67.5 °F /  19.7 °C 66.3 °F /  19.1 °C 30.05 in /  1017.5 hPa Calm     96 % 0.00 in /  0 mm
04:49 67.5 °F /  19.7 °C 66.3 °F /  19.1 °C 30.05 in /  1017.5 hPa Calm     96 % 0.00 in /  0 mm
04:54 67.4 °F /  19.7 °C 66.2 °F /  19 °C 30.05 in /  1017.5 hPa Calm     96 % 0.00 in /  0 mm
04:59 67.4 °F /  19.7 °C 66.2 °F /  19 °C 30.04 in /  1017.2 hPa Calm     96 % 0.00 in /  0 mm
05:04 67.4 °F /  19.7 °C 66.2 °F /  19 °C 30.04 in /  1017.2 hPa Calm     96 % 0.00 in /  0 mm
05:09 67.4 °F /  19.7 °C 66.2 °F /  19 °C 30.04 in /  1017.2 hPa Calm     96 % 0.00 in /  0 mm
05:14 67.3 °F /  19.6 °C 66.1 °F /  18.9 °C 30.04 in /  1017.2 hPa Calm   1.2 mph /  1.9 km/h 96 % 0.00 in /  0 mm
05:19 67.3 °F /  19.6 °C 66.1 °F /  18.9 °C 30.05 in /  1017.5 hPa Calm     96 % 0.00 in /  0 mm
05:25 67.3 °F /  19.6 °C 66.1 °F /  18.9 °C 30.04 in /  1017.2 hPa Calm     96 % 0.00 in /  0 mm
05:30 67.4 °F /  19.7 °C 66.2 °F /  19 °C 30.04 in /  1017.2 hPa Calm   1.2 mph /  1.9 km/h 96 % 0.00 in /  0 mm
05:35 67.4 °F /  19.7 °C 66.2 °F /  19 °C 30.04 in /  1017.2 hPa ESE 0.2 mph /  0.3 km/h 1.2 mph /  1.9 km/h 96 % 0.00 in /  0 mm
05:40 67.5 °F /  19.7 °C 66.3 °F /  19.1 °C 30.04 in /  1017.2 hPa ENE 3.4 mph /  5.5 km/h 4.6 mph /  7.4 km/h 96 % 0.00 in /  0 mm
05:45 67.5 °F /  19.7 °C 66.3 °F /  19.1 °C 30.04 in /  1017.2 hPa NE 0.2 mph /  0.3 km/h 2.3 mph /  3.7 km/h 96 % 0.00 in /  0 mm
05:50 67.6 °F /  19.8 °C 66.4 °F /  19.1 °C 30.05 in /  1017.5 hPa ENE 1.6 mph /  2.6 km/h 4.6 mph /  7.4 km/h 96 % 0.00 in /  0 mm
05:55 67.6 °F /  19.8 °C 66.4 °F /  19.1 °C 30.04 in /  1017.2 hPa ENE 4.7 mph /  7.6 km/h 7.0 mph /  11.3 km/h 96 % 0.00 in /  0 mm
06:00 67.7 °F /  19.8 °C 66.5 °F /  19.2 °C 30.05 in /  1017.5 hPa ENE 2.7 mph /  4.3 km/h 4.6 mph /  7.4 km/h 96 % 0.00 in /  0 mm
06:05 67.6 °F /  19.8 °C 66.4 °F /  19.1 °C 30.05 in /  1017.5 hPa ENE 0.1 mph /  0.2 km/h 1.2 mph /  1.9 km/h 96 % 0.00 in /  0 mm
06:10 67.6 °F /  19.8 °C 66.7 °F /  19.3 °C 30.05 in /  1017.5 hPa ENE 0.3 mph /  0.5 km/h 1.2 mph /  1.9 km/h 97 % 0.00 in /  0 mm
06:15 67.6 °F /  19.8 °C 66.4 °F /  19.1 °C 30.05 in /  1017.5 hPa ENE 1.9 mph /  3.1 km/h 4.6 mph /  7.4 km/h 96 % 0.00 in /  0 mm
06:20 67.6 °F /  19.8 °C 66.4 °F /  19.1 °C 30.05 in /  1017.5 hPa ENE 2.5 mph /  4 km/h 3.5 mph /  5.6 km/h 96 % 0.00 in /  0 mm
06:26 67.5 °F /  19.7 °C 66.3 °F /  19.1 °C 30.05 in /  1017.5 hPa ENE 2.0 mph /  3.2 km/h 8.0 mph /  12.9 km/h 96 % 0.00 in /  0 mm
06:31 67.6 °F /  19.8 °C 66.4 °F /  19.1 °C 30.06 in /  1017.8 hPa ENE 2.0 mph /  3.2 km/h 4.0 mph /  6.4 km/h 96 % 0.00 in /  0 mm
06:36 67.6 °F /  19.8 °C 66.4 °F /  19.1 °C 30.06 in /  1017.8 hPa ENE 2.0 mph /  3.2 km/h 5.0 mph /  8 km/h 96 % 0.00 in /  0 mm
06:41 67.6 °F /  19.8 °C 66.4 °F /  19.1 °C 30.06 in /  1017.8 hPa ENE 1.0 mph /  1.6 km/h 4.0 mph /  6.4 km/h 96 % 0.00 in /  0 mm
06:46 67.6 °F /  19.8 °C 66.4 °F /  19.1 °C 30.06 in /  1017.8 hPa ENE 2.0 mph /  3.2 km/h 6.0 mph /  9.7 km/h 96 % 0.00 in /  0 mm
06:51 67.6 °F /  19.8 °C 66.4 °F /  19.1 °C 30.06 in /  1017.8 hPa ENE 2.0 mph /  3.2 km/h 7.0 mph /  11.3 km/h 96 % 0.00 in /  0 mm
06:56 67.7 °F /  19.8 °C 66.5 °F /  19.2 °C 30.06 in /  1017.8 hPa ENE 3.0 mph /  4.8 km/h 8.0 mph /  12.9 km/h 96 % 0.00 in /  0 mm
07:01 67.7 °F /  19.8 °C 66.5 °F /  19.2 °C 30.07 in /  1018.2 hPa ENE 2.5 mph /  4 km/h 4.6 mph /  7.4 km/h 96 % 0.00 in /  0 mm
07:06 67.8 °F /  19.9 °C 66.6 °F /  19.2 °C 30.07 in /  1018.2 hPa ENE 2.8 mph /  4.5 km/h 4.6 mph /  7.4 km/h 96 % 0.00 in /  0 mm
07:11 67.8 °F /  19.9 °C 66.6 °F /  19.2 °C 30.07 in /  1018.2 hPa ENE 1.9 mph /  3.1 km/h 4.6 mph /  7.4 km/h 96 % 0.00 in /  0 mm
07:16 67.8 °F /  19.9 °C 66.6 °F /  19.2 °C 30.07 in /  1018.2 hPa ENE 1.7 mph /  2.7 km/h 3.5 mph /  5.6 km/h 96 % 0.00 in /  0 mm
07:21 67.8 °F /  19.9 °C 66.6 °F /  19.2 °C 30.07 in /  1018.2 hPa North 3.1 mph /  5 km/h 5.0 mph /  8 km/h 96 % 0.00 in /  0 mm
07:26 67.8 °F /  19.9 °C 66.6 °F /  19.2 °C 30.08 in /  1018.5 hPa ENE 2.4 mph /  3.9 km/h 4.6 mph /  7.4 km/h 96 % 0.00 in /  0 mm
07:31 67.7 °F /  19.8 °C 66.5 °F /  19.2 °C 30.07 in /  1018.2 hPa NE 3.6 mph /  5.8 km/h 6.9 mph /  11.1 km/h 96 % 0.00 in /  0 mm
07:36 67.8 °F /  19.9 °C 66.6 °F /  19.2 °C 30.07 in /  1018.2 hPa ENE 4.0 mph /  6.4 km/h 8.0 mph /  12.9 km/h 96 % 0.01 in /  0.25 mm
07:41 67.7 °F /  19.8 °C 66.8 °F /  19.3 °C 30.07 in /  1018.2 hPa NE 4.3 mph /  6.9 km/h 9.2 mph /  14.8 km/h 97 % 0.01 in /  0.25 mm
07:46 67.8 °F /  19.9 °C 66.9 °F /  19.4 °C 30.07 in /  1018.2 hPa ENE 4.1 mph /  6.6 km/h 8.1 mph /  13 km/h 97 % 0.01 in /  0.25 mm
07:51 67.8 °F /  19.9 °C 66.9 °F /  19.4 °C 30.07 in /  1018.2 hPa NE 3.7 mph /  6 km/h 8.0 mph /  12.9 km/h 97 % 0.01 in /  0.25 mm
07:56 67.8 °F /  19.9 °C 66.9 °F /  19.4 °C 30.07 in /  1018.2 hPa ENE 4.3 mph /  6.9 km/h 9.2 mph /  14.8 km/h 97 % 0.01 in /  0.25 mm
08:01 67.8 °F /  19.9 °C 66.9 °F /  19.4 °C 30.08 in /  1018.5 hPa ENE 2.8 mph /  4.5 km/h 4.6 mph /  7.4 km/h 97 % 0.01 in /  0.25 mm
08:07 67.7 °F /  19.8 °C 66.8 °F /  19.3 °C 30.08 in /  1018.5 hPa ENE 4.4 mph /  7.1 km/h 10.4 mph /  16.7 km/h 97 % 0.01 in /  0.25 mm
08:12 67.7 °F /  19.8 °C 66.8 °F /  19.3 °C 30.07 in /  1018.2 hPa ENE 3.8 mph /  6.1 km/h 8.1 mph /  13 km/h 97 % 0.01 in /  0.25 mm
08:17 67.8 °F /  19.9 °C 66.9 °F /  19.4 °C 30.08 in /  1018.5 hPa ENE 2.7 mph /  4.3 km/h 6.9 mph /  11.1 km/h 97 % 0.01 in /  0.25 mm
08:22 67.8 °F /  19.9 °C 66.9 °F /  19.4 °C 30.08 in /  1018.5 hPa NE 3.0 mph /  4.8 km/h 4.6 mph /  7.4 km/h 97 % 0.02 in /  0.51 mm
08:32 67.9 °F /  19.9 °C 67.0 °F /  19.4 °C 30.08 in /  1018.5 hPa ENE 2.7 mph /  4.3 km/h 8.1 mph /  13 km/h 97 % 0.01 in /  0.25 mm
08:37 67.9 °F /  19.9 °C 67.0 °F /  19.4 °C 30.07 in /  1018.2 hPa ENE 1.8 mph /  2.9 km/h 2.3 mph /  3.7 km/h 97 % 0.01 in /  0.25 mm
08:42 67.9 °F /  19.9 °C 67.0 °F /  19.4 °C 30.08 in /  1018.5 hPa NE 5.1 mph /  8.2 km/h 10.4 mph /  16.7 km/h 97 % 0.01 in /  0.25 mm
08:47 68.0 °F /  20 °C 67.1 °F /  19.5 °C 30.08 in /  1018.5 hPa NNE 3.3 mph /  5.3 km/h 3.5 mph /  5.6 km/h 97 % 0.01 in /  0.25 mm
08:52 68.0 °F /  20 °C 67.1 °F /  19.5 °C 30.08 in /  1018.5 hPa NE 2.4 mph /  3.9 km/h 8.1 mph /  13 km/h 97 % 0.01 in /  0.25 mm
08:57 68.1 °F /  20.1 °C 67.2 °F /  19.6 °C 30.08 in /  1018.5 hPa ENE 1.3 mph /  2.1 km/h 4.0 mph /  6.4 km/h 97 % 0.01 in /  0.25 mm
09:02 68.2 °F /  20.1 °C 67.3 °F /  19.6 °C 30.08 in /  1018.5 hPa NNE 2.0 mph /  3.2 km/h 5.0 mph /  8 km/h 97 % 0.01 in /  0.25 mm
09:07 68.2 °F /  20.1 °C 67.3 °F /  19.6 °C 30.08 in /  1018.5 hPa NNE 2.3 mph /  3.7 km/h 8.1 mph /  13 km/h 97 % 0.01 in /  0.25 mm
09:08 68.2 °F /  20.1 °C 67.3 °F /  19.6 °C 30.08 in /  1018.5 hPa ENE 2.2 mph /  3.5 km/h 8.1 mph /  13 km/h 97 % 0.01 in /  0.25 mm
09:13 68.2 °F /  20.1 °C 67.3 °F /  19.6 °C 30.08 in /  1018.5 hPa NNE 2.9 mph /  4.7 km/h 8.1 mph /  13 km/h 97 % 0.01 in /  0.25 mm
09:18 68.1 °F /  20.1 °C 67.2 °F /  19.6 °C 30.08 in /  1018.5 hPa NE 2.9 mph /  4.7 km/h 4.6 mph /  7.4 km/h 97 % 0.01 in /  0.25 mm
09:23 68.1 °F /  20.1 °C 67.2 °F /  19.6 °C 30.08 in /  1018.5 hPa NE 2.8 mph /  4.5 km/h 5.8 mph /  9.3 km/h 97 % 0.00 in /  0 mm
09:28 68.1 °F /  20.1 °C 67.2 °F /  19.6 °C 30.08 in /  1018.5 hPa ENE 4.1 mph /  6.6 km/h 8.1 mph /  13 km/h 97 % 0.00 in /  0 mm
09:33 68.1 °F /  20.1 °C 67.2 °F /  19.6 °C 30.08 in /  1018.5 hPa NE 2.8 mph /  4.5 km/h 4.6 mph /  7.4 km/h 97 % 0.00 in /  0 mm
09:38 68.1 °F /  20.1 °C 67.2 °F /  19.6 °C 30.08 in /  1018.5 hPa ENE 4.2 mph /  6.8 km/h 7.0 mph /  11.3 km/h 97 % 0.00 in /  0 mm
09:43 68.2 °F /  20.1 °C 67.3 °F /  19.6 °C 30.08 in /  1018.5 hPa ENE 2.9 mph /  4.7 km/h 5.0 mph /  8 km/h 97 % 0.00 in /  0 mm
09:48 68.2 °F /  20.1 °C 67.3 °F /  19.6 °C 30.08 in /  1018.5 hPa NE 2.8 mph /  4.5 km/h 6.9 mph /  11.1 km/h 97 % 0.00 in /  0 mm
09:53 68.3 °F /  20.2 °C 67.4 °F /  19.7 °C 30.08 in /  1018.5 hPa NE 3.7 mph /  6 km/h 7.0 mph /  11.3 km/h 97 % 0.00 in /  0 mm
09:58 68.3 °F /  20.2 °C 67.4 °F /  19.7 °C 30.08 in /  1018.5 hPa ENE 2.9 mph /  4.7 km/h 5.0 mph /  8 km/h 97 % 0.00 in /  0 mm
10:03 68.3 °F /  20.2 °C 67.4 °F /  19.7 °C 30.08 in /  1018.5 hPa ENE 5.9 mph /  9.5 km/h 8.1 mph /  13 km/h 97 % 0.00 in /  0 mm
10:09 68.2 °F /  20.1 °C 67.3 °F /  19.6 °C 30.08 in /  1018.5 hPa NE 4.0 mph /  6.4 km/h 6.9 mph /  11.1 km/h 97 % 0.00 in /  0 mm
10:14 68.2 °F /  20.1 °C 67.3 °F /  19.6 °C 30.08 in /  1018.5 hPa ENE 5.0 mph /  8 km/h 9.2 mph /  14.8 km/h 97 % 0.00 in /  0 mm
10:19 68.2 °F /  20.1 °C 67.3 °F /  19.6 °C 30.08 in /  1018.5 hPa ENE 4.0 mph /  6.4 km/h 9.2 mph /  14.8 km/h 97 % 0.00 in /  0 mm
10:24 68.1 °F /  20.1 °C 67.2 °F /  19.6 °C 30.08 in /  1018.5 hPa NNE 4.4 mph /  7.1 km/h 8.1 mph /  13 km/h 97 % 0.00 in /  0 mm
10:29 68.0 °F /  20 °C 67.1 °F /  19.5 °C 30.08 in /  1018.5 hPa ENE 5.0 mph /  8 km/h 9.2 mph /  14.8 km/h 97 % 0.00 in /  0 mm
10:34 68.0 °F /  20 °C 67.1 °F /  19.5 °C 30.07 in /  1018.2 hPa NE 4.8 mph /  7.7 km/h 9.2 mph /  14.8 km/h 97 % 0.00 in /  0 mm
10:39 68.1 °F /  20.1 °C 67.2 °F /  19.6 °C 30.07 in /  1018.2 hPa ENE 3.2 mph /  5.1 km/h 6.9 mph /  11.1 km/h 97 % 0.00 in /  0 mm
10:44 68.1 °F /  20.1 °C 67.2 °F /  19.6 °C 30.07 in /  1018.2 hPa ENE 3.3 mph /  5.3 km/h 5.8 mph /  9.3 km/h 97 % 0.00 in /  0 mm
10:49 68.1 °F /  20.1 °C 67.2 °F /  19.6 °C 30.08 in /  1018.5 hPa NE 4.7 mph /  7.6 km/h 6.9 mph /  11.1 km/h 97 % 0.00 in /  0 mm
10:54 68.1 °F /  20.1 °C 67.2 °F /  19.6 °C 30.07 in /  1018.2 hPa ENE 2.9 mph /  4.7 km/h 6.9 mph /  11.1 km/h 97 % 0.00 in /  0 mm
10:59 68.1 °F /  20.1 °C 67.2 °F /  19.6 °C 30.07 in /  1018.2 hPa East 3.2 mph /  5.1 km/h 5.8 mph /  9.3 km/h 97 % 0.00 in /  0 mm
11:09 68.3 °F /  20.2 °C 67.4 °F /  19.7 °C 30.07 in /  1018.2 hPa ENE 2.5 mph /  4 km/h 9.0 mph /  14.5 km/h 97 % 0.00 in /  0 mm
11:15 68.4 °F /  20.2 °C 67.5 °F /  19.7 °C 30.07 in /  1018.2 hPa NE 2.5 mph /  4 km/h 5.8 mph /  9.3 km/h 97 % 0.00 in /  0 mm
11:20 68.4 °F /  20.2 °C 67.5 °F /  19.7 °C 30.08 in /  1018.5 hPa NE 4.2 mph /  6.8 km/h 6.9 mph /  11.1 km/h 97 % 0.00 in /  0 mm
11:25 68.4 °F /  20.2 °C 67.2 °F /  19.6 °C 30.08 in /  1018.5 hPa ENE 3.0 mph /  4.8 km/h 4.6 mph /  7.4 km/h 96 % 0.00 in /  0 mm
11:30 68.5 °F /  20.3 °C 67.3 °F /  19.6 °C 30.07 in /  1018.2 hPa ENE 2.9 mph /  4.7 km/h 6.9 mph /  11.1 km/h 96 % 0.00 in /  0 mm
11:35 68.6 °F /  20.3 °C 67.4 °F /  19.7 °C 30.08 in /  1018.5 hPa NE 2.9 mph /  4.7 km/h 4.6 mph /  7.4 km/h 96 % 0.00 in /  0 mm
11:40 68.7 °F /  20.4 °C 67.5 °F /  19.7 °C 30.07 in /  1018.2 hPa ENE 3.9 mph /  6.3 km/h 6.9 mph /  11.1 km/h 96 % 0.00 in /  0 mm
11:45 68.8 °F /  20.4 °C 67.6 °F /  19.8 °C 30.08 in /  1018.5 hPa East 3.6 mph /  5.8 km/h 5.8 mph /  9.3 km/h 96 % 0.00 in /  0 mm
11:50 68.9 °F /  20.5 °C 67.7 °F /  19.8 °C 30.07 in /  1018.2 hPa NE 2.0 mph /  3.2 km/h 8.1 mph /  13 km/h 96 % 0.00 in /  0 mm
11:55 69.1 °F /  20.6 °C 67.9 °F /  19.9 °C 30.07 in /  1018.2 hPa ENE 2.6 mph /  4.2 km/h 3.5 mph /  5.6 km/h 96 % 0.00 in /  0 mm
12:00 69.2 °F /  20.7 °C 68.0 °F /  20 °C 30.07 in /  1018.2 hPa NE 2.9 mph /  4.7 km/h 7.0 mph /  11.3 km/h 96 % 0.00 in /  0 mm
12:05 69.4 °F /  20.8 °C 67.9 °F /  19.9 °C 30.07 in /  1018.2 hPa NE 2.2 mph /  3.5 km/h 3.5 mph /  5.6 km/h 95 % 0.00 in /  0 mm
12:10 69.5 °F /  20.8 °C 68.0 °F /  20 °C 30.07 in /  1018.2 hPa NE 3.8 mph /  6.1 km/h 8.1 mph /  13 km/h 95 % 0.00 in /  0 mm
12:16 69.7 °F /  20.9 °C 68.2 °F /  20.1 °C 30.07 in /  1018.2 hPa ENE 2.0 mph /  3.2 km/h 6.0 mph /  9.7 km/h 95 % 0.00 in /  0 mm
12:21 69.9 °F /  21.1 °C 68.1 °F /  20.1 °C 30.07 in /  1018.2 hPa NE 2.3 mph /  3.7 km/h 4.6 mph /  7.4 km/h 94 % 0.00 in /  0 mm
12:26 70.0 °F /  21.1 °C 68.2 °F /  20.1 °C 30.07 in /  1018.2 hPa East 3.5 mph /  5.6 km/h 8.0 mph /  12.9 km/h 94 % 0.00 in /  0 mm
12:31 70.0 °F /  21.1 °C 68.2 °F /  20.1 °C 30.07 in /  1018.2 hPa East 3.7 mph /  6 km/h 6.0 mph /  9.7 km/h 94 % 0.00 in /  0 mm
12:36 70.1 °F /  21.2 °C 68.0 °F /  20 °C 30.06 in /  1017.8 hPa ENE 3.8 mph /  6.1 km/h 9.2 mph /  14.8 km/h 93 % 0.00 in /  0 mm
12:41 70.2 °F /  21.2 °C 68.1 °F /  20.1 °C 30.06 in /  1017.8 hPa ENE 3.5 mph /  5.6 km/h 6.9 mph /  11.1 km/h 93 % 0.00 in /  0 mm
12:46 70.3 °F /  21.3 °C 68.2 °F /  20.1 °C 30.06 in /  1017.8 hPa ENE 3.5 mph /  5.6 km/h 6.9 mph /  11.1 km/h 93 % 0.00 in /  0 mm
12:51 70.4 °F /  21.3 °C 68.3 °F /  20.2 °C 30.06 in /  1017.8 hPa ENE 1.8 mph /  2.9 km/h 3.5 mph /  5.6 km/h 93 % 0.00 in /  0 mm
12:56 70.6 °F /  21.4 °C 68.5 °F /  20.3 °C 30.06 in /  1017.8 hPa ENE 1.4 mph /  2.3 km/h 3.5 mph /  5.6 km/h 93 % 0.00 in /  0 mm
13:01 70.8 °F /  21.6 °C 68.7 °F /  20.4 °C 30.06 in /  1017.8 hPa ENE 2.2 mph /  3.5 km/h 3.5 mph /  5.6 km/h 93 % 0.00 in /  0 mm
13:06 71.0 °F /  21.7 °C 68.9 °F /  20.5 °C 30.06 in /  1017.8 hPa ENE 1.8 mph /  2.9 km/h 2.3 mph /  3.7 km/h 93 % 0.00 in /  0 mm
13:12 71.2 °F /  21.8 °C 69.1 °F /  20.6 °C 30.06 in /  1017.8 hPa ENE 2.4 mph /  3.9 km/h 3.5 mph /  5.6 km/h 93 % 0.00 in /  0 mm
13:17 71.3 °F /  21.8 °C 68.9 °F /  20.5 °C 30.06 in /  1017.8 hPa ENE 2.5 mph /  4 km/h 4.0 mph /  6.4 km/h 92 % 0.00 in /  0 mm
13:22 71.5 °F /  21.9 °C 69.1 °F /  20.6 °C 30.06 in /  1017.8 hPa ENE 1.8 mph /  2.9 km/h 3.5 mph /  5.6 km/h 92 % 0.00 in /  0 mm
13:27 71.7 °F /  22.1 °C 68.9 °F /  20.5 °C 30.06 in /  1017.8 hPa ENE 2.6 mph /  4.2 km/h 3.5 mph /  5.6 km/h 91 % 0.00 in /  0 mm
13:32 71.7 °F /  22.1 °C 68.9 °F /  20.5 °C 30.06 in /  1017.8 hPa ENE 2.8 mph /  4.5 km/h 3.5 mph /  5.6 km/h 91 % 0.00 in /  0 mm
13:37 71.7 °F /  22.1 °C 68.9 °F /  20.5 °C 30.05 in /  1017.5 hPa ENE 1.8 mph /  2.9 km/h 3.0 mph /  4.8 km/h 91 % 0.00 in /  0 mm
13:42 71.6 °F /  22 °C 68.5 °F /  20.3 °C 30.05 in /  1017.5 hPa ENE 2.4 mph /  3.9 km/h 6.9 mph /  11.1 km/h 90 % 0.00 in /  0 mm
13:47 71.6 °F /  22 °C 68.5 °F /  20.3 °C 30.05 in /  1017.5 hPa ENE 1.8 mph /  2.9 km/h 3.5 mph /  5.6 km/h 90 % 0.00 in /  0 mm
13:52 71.6 °F /  22 °C 68.8 °F /  20.4 °C 30.05 in /  1017.5 hPa East 2.8 mph /  4.5 km/h 5.0 mph /  8 km/h 91 % 0.00 in /  0 mm
13:57 71.7 °F /  22.1 °C 68.9 °F /  20.5 °C 30.05 in /  1017.5 hPa ENE 3.1 mph /  5 km/h 7.0 mph /  11.3 km/h 91 % 0.00 in /  0 mm
14:02 71.7 °F /  22.1 °C 68.9 °F /  20.5 °C 30.04 in /  1017.2 hPa ENE 2.5 mph /  4 km/h 4.0 mph /  6.4 km/h 91 % 0.00 in /  0 mm
14:08 71.8 °F /  22.1 °C 68.7 °F /  20.4 °C 30.04 in /  1017.2 hPa ENE 1.6 mph /  2.6 km/h 3.5 mph /  5.6 km/h 90 % 0.00 in /  0 mm
14:13 71.9 °F /  22.2 °C 69.1 °F /  20.6 °C 30.04 in /  1017.2 hPa ENE 2.6 mph /  4.2 km/h 4.6 mph /  7.4 km/h 91 % 0.00 in /  0 mm
14:18 71.9 °F /  22.2 °C 68.8 °F /  20.4 °C 30.04 in /  1017.2 hPa ENE 2.3 mph /  3.7 km/h 4.6 mph /  7.4 km/h 90 % 0.00 in /  0 mm
14:23 72.0 °F /  22.2 °C 68.9 °F /  20.5 °C 30.04 in /  1017.2 hPa ENE 2.5 mph /  4 km/h 5.8 mph /  9.3 km/h 90 % 0.00 in /  0 mm
14:28 72.0 °F /  22.2 °C 68.9 °F /  20.5 °C 30.04 in /  1017.2 hPa ENE 2.9 mph /  4.7 km/h 3.5 mph /  5.6 km/h 90 % 0.00 in /  0 mm
14:33 72.1 °F /  22.3 °C 69.0 °F /  20.6 °C 30.04 in /  1017.2 hPa ENE 2.0 mph /  3.2 km/h 3.5 mph /  5.6 km/h 90 % 0.00 in /  0 mm
14:38 72.2 °F /  22.3 °C 69.1 °F /  20.6 °C 30.04 in /  1017.2 hPa ENE 1.7 mph /  2.7 km/h 3.5 mph /  5.6 km/h 90 % 0.00 in /  0 mm
14:43 72.3 °F /  22.4 °C 69.2 °F /  20.7 °C 30.04 in /  1017.2 hPa East 3.4 mph /  5.5 km/h 4.6 mph /  7.4 km/h 90 % 0.00 in /  0 mm
14:48 72.4 °F /  22.4 °C 69.3 °F /  20.7 °C 30.04 in /  1017.2 hPa ENE 4.0 mph /  6.4 km/h 4.6 mph /  7.4 km/h 90 % 0.00 in /  0 mm
14:54 72.4 °F /  22.4 °C 69.0 °F /  20.6 °C 30.04 in /  1017.2 hPa East 2.3 mph /  3.7 km/h 3.5 mph /  5.6 km/h 89 % 0.00 in /  0 mm
14:59 72.5 °F /  22.5 °C 69.4 °F /  20.8 °C 30.04 in /  1017.2 hPa ENE 3.0 mph /  4.8 km/h 8.1 mph /  13 km/h 90 % 0.00 in /  0 mm
15:05 72.6 °F /  22.6 °C 69.2 °F /  20.7 °C 30.04 in /  1017.2 hPa ENE 3.4 mph /  5.5 km/h 4.6 mph /  7.4 km/h 89 % 0.00 in /  0 mm
15:07 72.7 °F /  22.6 °C 69.3 °F /  20.7 °C 30.04 in /  1017.2 hPa ENE 1.5 mph /  2.4 km/h 3.5 mph /  5.6 km/h 89 % 0.00 in /  0 mm
15:10 72.8 °F /  22.7 °C 69.7 °F /  20.9 °C 30.04 in /  1017.2 hPa ENE 2.5 mph /  4 km/h 3.5 mph /  5.6 km/h 90 % 0.00 in /  0 mm
15:12 72.9 °F /  22.7 °C 69.8 °F /  21 °C 30.04 in /  1017.2 hPa ENE 1.3 mph /  2.1 km/h 3.5 mph /  5.6 km/h 90 % 0.00 in /  0 mm
15:13 72.9 °F /  22.7 °C 69.8 °F /  21 °C 30.04 in /  1017.2 hPa ENE 1.7 mph /  2.7 km/h 4.0 mph /  6.4 km/h 90 % 0.00 in /  0 mm
15:17 73.0 °F /  22.8 °C 69.6 °F /  20.9 °C 30.04 in /  1017.2 hPa ENE 2.2 mph /  3.5 km/h 3.5 mph /  5.6 km/h 89 % 0.00 in /  0 mm
15:18 73.0 °F /  22.8 °C 69.6 °F /  20.9 °C 30.04 in /  1017.2 hPa East 2.8 mph /  4.5 km/h 5.0 mph /  8 km/h 89 % 0.00 in /  0 mm
15:20 73.1 °F /  22.8 °C 69.3 °F /  20.7 °C 30.04 in /  1017.2 hPa East 2.1 mph /  3.4 km/h 3.5 mph /  5.6 km/h 88 % 0.00 in /  0 mm
15:23 73.1 °F /  22.8 °C 69.3 °F /  20.7 °C 30.04 in /  1017.2 hPa ENE 2.6 mph /  4.2 km/h 4.0 mph /  6.4 km/h 88 % 0.00 in /  0 mm
15:24 73.1 °F /  22.8 °C 69.3 °F /  20.7 °C 30.05 in /  1017.5 hPa ENE 1.8 mph /  2.9 km/h 3.5 mph /  5.6 km/h 88 % 0.00 in /  0 mm
15:26 73.1 °F /  22.8 °C 69.3 °F /  20.7 °C 30.05 in /  1017.5 hPa ENE 2.3 mph /  3.7 km/h 4.0 mph /  6.4 km/h 88 % 0.00 in /  0 mm
15:27 73.1 °F /  22.8 °C 69.3 °F /  20.7 °C 30.05 in /  1017.5 hPa ENE 2.5 mph /  4 km/h 3.5 mph /  5.6 km/h 88 % 0.00 in /  0 mm
15:28 73.1 °F /  22.8 °C 69.3 °F /  20.7 °C 30.04 in /  1017.2 hPa ENE 1.8 mph /  2.9 km/h 3.5 mph /  5.6 km/h 88 % 0.00 in /  0 mm
15:32 73.1 °F /  22.8 °C 69.3 °F /  20.7 °C 30.04 in /  1017.2 hPa ENE 2.5 mph /  4 km/h 5.8 mph /  9.3 km/h 88 % 0.00 in /  0 mm
15:37 73.1 °F /  22.8 °C 69.3 °F /  20.7 °C 30.04 in /  1017.2 hPa ENE 2.1 mph /  3.4 km/h 3.5 mph /  5.6 km/h 88 % 0.00 in /  0 mm
15:42 73.1 °F /  22.8 °C 69.3 °F /  20.7 °C 30.04 in /  1017.2 hPa East 2.8 mph /  4.5 km/h 4.6 mph /  7.4 km/h 88 % 0.00 in /  0 mm
15:47 73.1 °F /  22.8 °C 69.3 °F /  20.7 °C 30.04 in /  1017.2 hPa ENE 2.5 mph /  4 km/h 4.6 mph /  7.4 km/h 88 % 0.00 in /  0 mm
15:49 73.2 °F /  22.9 °C 69.4 °F /  20.8 °C 30.04 in /  1017.2 hPa East 2.2 mph /  3.5 km/h 3.5 mph /  5.6 km/h 88 % 0.00 in /  0 mm
15:54 73.3 °F /  22.9 °C 69.5 °F /  20.8 °C 30.04 in /  1017.2 hPa East 2.4 mph /  3.9 km/h 3.5 mph /  5.6 km/h 88 % 0.00 in /  0 mm
15:55 73.3 °F /  22.9 °C 69.2 °F /  20.7 °C 30.04 in /  1017.2 hPa East 1.5 mph /  2.4 km/h 3.5 mph /  5.6 km/h 87 % 0.00 in /  0 mm
15:56 73.3 °F /  22.9 °C 69.2 °F /  20.7 °C 30.04 in /  1017.2 hPa East 2.2 mph /  3.5 km/h 3.5 mph /  5.6 km/h 87 % 0.00 in /  0 mm
15:58 73.4 °F /  23 °C 69.3 °F /  20.7 °C 30.04 in /  1017.2 hPa ESE 1.4 mph /  2.3 km/h 3.5 mph /  5.6 km/h 87 % 0.00 in /  0 mm
16:01 73.4 °F /  23 °C 69.3 °F /  20.7 °C 30.04 in /  1017.2 hPa East 1.5 mph /  2.4 km/h 2.3 mph /  3.7 km/h 87 % 0.00 in /  0 mm
16:03 73.5 °F /  23.1 °C 69.7 °F /  20.9 °C 30.04 in /  1017.2 hPa East 1.9 mph /  3.1 km/h 3.5 mph /  5.6 km/h 88 % 0.00 in /  0 mm
16:07 73.6 °F /  23.1 °C 69.5 °F /  20.8 °C 30.04 in /  1017.2 hPa SE 1.2 mph /  1.9 km/h 4.6 mph /  7.4 km/h 87 % 0.00 in /  0 mm
16:08 73.6 °F /  23.1 °C 69.5 °F /  20.8 °C 30.04 in /  1017.2 hPa East 2.4 mph /  3.9 km/h 3.5 mph /  5.6 km/h 87 % 0.00 in /  0 mm
16:13 73.6 °F /  23.1 °C 69.5 °F /  20.8 °C 30.04 in /  1017.2 hPa East 2.5 mph /  4 km/h 3.5 mph /  5.6 km/h 87 % 0.00 in /  0 mm
16:18 73.6 °F /  23.1 °C 69.5 °F /  20.8 °C 30.04 in /  1017.2 hPa ENE 2.4 mph /  3.9 km/h 3.5 mph /  5.6 km/h 87 % 0.00 in /  0 mm
16:23 73.5 °F /  23.1 °C 69.4 °F /  20.8 °C 30.04 in /  1017.2 hPa ENE 1.9 mph /  3.1 km/h 3.5 mph /  5.6 km/h 87 % 0.00 in /  0 mm
16:29 73.4 °F /  23 °C 69.3 °F /  20.7 °C 30.03 in /  1016.8 hPa ENE 2.3 mph /  3.7 km/h 3.5 mph /  5.6 km/h 87 % 0.00 in /  0 mm
16:30 73.3 °F /  22.9 °C 69.2 °F /  20.7 °C 30.04 in /  1017.2 hPa ENE 2.0 mph /  3.2 km/h 4.6 mph /  7.4 km/h 87 % 0.00 in /  0 mm
16:33 73.2 °F /  22.9 °C 69.1 °F /  20.6 °C 30.04 in /  1017.2 hPa ENE 2.2 mph /  3.5 km/h 4.0 mph /  6.4 km/h 87 % 0.00 in /  0 mm
16:36 73.1 °F /  22.8 °C 69.0 °F /  20.6 °C 30.04 in /  1017.2 hPa ENE 1.7 mph /  2.7 km/h 4.6 mph /  7.4 km/h 87 % 0.00 in /  0 mm
16:38 73.0 °F /  22.8 °C 69.2 °F /  20.7 °C 30.04 in /  1017.2 hPa ENE 2.8 mph /  4.5 km/h 4.6 mph /  7.4 km/h 88 % 0.00 in /  0 mm
16:41 72.9 °F /  22.7 °C 69.1 °F /  20.6 °C 30.03 in /  1016.8 hPa ENE 2.1 mph /  3.4 km/h 3.5 mph /  5.6 km/h 88 % 0.00 in /  0 mm
16:47 72.9 °F /  22.7 °C 69.1 °F /  20.6 °C 30.03 in /  1016.8 hPa ENE 2.2 mph /  3.5 km/h 3.5 mph /  5.6 km/h 88 % 0.00 in /  0 mm
16:50 72.8 °F /  22.7 °C 69.0 °F /  20.6 °C 30.04 in /  1017.2 hPa ENE 2.4 mph /  3.9 km/h 3.5 mph /  5.6 km/h 88 % 0.00 in /  0 mm
16:51 72.8 °F /  22.7 °C 69.0 °F /  20.6 °C 30.04 in /  1017.2 hPa ENE 2.4 mph /  3.9 km/h 3.5 mph /  5.6 km/h 88 % 0.00 in /  0 mm
16:56 72.6 °F /  22.6 °C 68.8 °F /  20.4 °C 30.03 in /  1016.8 hPa ENE 2.2 mph /  3.5 km/h 3.5 mph /  5.6 km/h 88 % 0.00 in /  0 mm
16:57 72.6 °F /  22.6 °C 68.8 °F /  20.4 °C 30.03 in /  1016.8 hPa East 2.1 mph /  3.4 km/h 3.5 mph /  5.6 km/h 88 % 0.00 in /  0 mm
16:58 72.6 °F /  22.6 °C 69.2 °F /  20.7 °C 30.04 in /  1017.2 hPa ENE 2.0 mph /  3.2 km/h 4.6 mph /  7.4 km/h 89 % 0.00 in /  0 mm
17:04 72.4 °F /  22.4 °C 68.6 °F /  20.3 °C 30.03 in /  1016.8 hPa ENE 2.8 mph /  4.5 km/h 3.5 mph /  5.6 km/h 88 % 0.00 in /  0 mm
17:09 72.4 °F /  22.4 °C 69.0 °F /  20.6 °C 30.03 in /  1016.8 hPa ENE 1.6 mph /  2.6 km/h 3.5 mph /  5.6 km/h 89 % 0.00 in /  0 mm
17:14 72.3 °F /  22.4 °C 68.9 °F /  20.5 °C 30.03 in /  1016.8 hPa ENE 3.0 mph /  4.8 km/h 3.5 mph /  5.6 km/h 89 % 0.00 in /  0 mm
17:19 72.2 °F /  22.3 °C 68.8 °F /  20.4 °C 30.03 in /  1016.8 hPa ENE 3.0 mph /  4.8 km/h 4.6 mph /  7.4 km/h 89 % 0.00 in /  0 mm
17:24 72.2 °F /  22.3 °C 68.8 °F /  20.4 °C 30.03 in /  1016.8 hPa NE 2.1 mph /  3.4 km/h 3.5 mph /  5.6 km/h 89 % 0.00 in /  0 mm
17:29 72.1 °F /  22.3 °C 68.7 °F /  20.4 °C 30.04 in /  1017.2 hPa ENE 1.1 mph /  1.8 km/h 2.3 mph /  3.7 km/h 89 % 0.00 in /  0 mm
17:34 72.1 °F /  22.3 °C 69.0 °F /  20.6 °C 30.03 in /  1016.8 hPa ENE 1.5 mph /  2.4 km/h 3.5 mph /  5.6 km/h 90 % 0.00 in /  0 mm
17:39 72.0 °F /  22.2 °C 68.9 °F /  20.5 °C 30.03 in /  1016.8 hPa ENE 2.6 mph /  4.2 km/h 4.6 mph /  7.4 km/h 90 % 0.00 in /  0 mm
17:44 71.9 °F /  22.2 °C 68.8 °F /  20.4 °C 30.03 in /  1016.8 hPa ENE 3.2 mph /  5.1 km/h 3.5 mph /  5.6 km/h 90 % 0.00 in /  0 mm
17:49 71.9 °F /  22.2 °C 68.8 °F /  20.4 °C 30.03 in /  1016.8 hPa ENE 1.7 mph /  2.7 km/h 3.5 mph /  5.6 km/h 90 % 0.00 in /  0 mm
17:54 71.9 °F /  22.2 °C 68.8 °F /  20.4 °C 30.03 in /  1016.8 hPa ENE 2.1 mph /  3.4 km/h 6.9 mph /  11.1 km/h 90 % 0.00 in /  0 mm
17:59 71.8 °F /  22.1 °C 68.7 °F /  20.4 °C 30.03 in /  1016.8 hPa ENE 1.5 mph /  2.4 km/h 3.5 mph /  5.6 km/h 90 % 0.00 in /  0 mm
18:05 71.7 °F /  22.1 °C 68.6 °F /  20.3 °C 30.03 in /  1016.8 hPa ENE 1.4 mph /  2.3 km/h 2.3 mph /  3.7 km/h 90 % 0.00 in /  0 mm
18:10 71.7 °F /  22.1 °C 68.6 °F /  20.3 °C 30.04 in /  1017.2 hPa NE 1.5 mph /  2.4 km/h 3.5 mph /  5.6 km/h 90 % 0.00 in /  0 mm
18:15 71.7 °F /  22.1 °C 68.9 °F /  20.5 °C 30.03 in /  1016.8 hPa ENE 1.7 mph /  2.7 km/h 3.5 mph /  5.6 km/h 91 % 0.00 in /  0 mm
18:20 71.7 °F /  22.1 °C 68.9 °F /  20.5 °C 30.03 in /  1016.8 hPa ENE 1.5 mph /  2.4 km/h 4.6 mph /  7.4 km/h 91 % 0.00 in /  0 mm
18:25 71.6 °F /  22 °C 68.8 °F /  20.4 °C 30.03 in /  1016.8 hPa East 1.6 mph /  2.6 km/h 2.3 mph /  3.7 km/h 91 % 0.00 in /  0 mm
18:30 71.5 °F /  21.9 °C 68.7 °F /  20.4 °C 30.03 in /  1016.8 hPa ENE 2.2 mph /  3.5 km/h 3.5 mph /  5.6 km/h 91 % 0.00 in /  0 mm
18:35 71.4 °F /  21.9 °C 68.6 °F /  20.3 °C 30.03 in /  1016.8 hPa ENE 1.5 mph /  2.4 km/h 3.5 mph /  5.6 km/h 91 % 0.00 in /  0 mm
18:40 71.3 °F /  21.8 °C 68.5 °F /  20.3 °C 30.03 in /  1016.8 hPa ENE 1.8 mph /  2.9 km/h 3.5 mph /  5.6 km/h 91 % 0.00 in /  0 mm
18:45 71.2 °F /  21.8 °C 68.8 °F /  20.4 °C 30.02 in /  1016.5 hPa ENE 1.7 mph /  2.7 km/h 3.5 mph /  5.6 km/h 92 % 0.00 in /  0 mm
18:50 71.2 °F /  21.8 °C 68.8 °F /  20.4 °C 30.02 in /  1016.5 hPa ENE 1.3 mph /  2.1 km/h 3.5 mph /  5.6 km/h 92 % 0.00 in /  0 mm
18:55 71.1 °F /  21.7 °C 68.7 °F /  20.4 °C 30.02 in /  1016.5 hPa ENE 2.4 mph /  3.9 km/h 3.5 mph /  5.6 km/h 92 % 0.00 in /  0 mm
19:01 71.0 °F /  21.7 °C 68.6 °F /  20.3 °C 30.03 in /  1016.8 hPa ENE 2.3 mph /  3.7 km/h 3.5 mph /  5.6 km/h 92 % 0.00 in /  0 mm
19:06 70.9 °F /  21.6 °C 68.5 °F /  20.3 °C 30.03 in /  1016.8 hPa ENE 1.0 mph /  1.6 km/h 3.0 mph /  4.8 km/h 92 % 0.00 in /  0 mm
19:11 70.8 °F /  21.6 °C 68.7 °F /  20.4 °C 30.03 in /  1016.8 hPa ENE 1.0 mph /  1.6 km/h 3.0 mph /  4.8 km/h 93 % 0.00 in /  0 mm
19:16 70.8 °F /  21.6 °C 68.7 °F /  20.4 °C 30.03 in /  1016.8 hPa Calm   3.0 mph /  4.8 km/h 93 % 0.00 in /  0 mm
19:21 70.7 °F /  21.5 °C 68.6 °F /  20.3 °C 30.03 in /  1016.8 hPa Calm   1.0 mph /  1.6 km/h 93 % 0.00 in /  0 mm
19:26 70.6 °F /  21.4 °C 68.5 °F /  20.3 °C 30.03 in /  1016.8 hPa ENE 1.0 mph /  1.6 km/h 4.0 mph /  6.4 km/h 93 % 0.00 in /  0 mm
19:31 70.5 °F /  21.4 °C 68.4 °F /  20.2 °C 30.03 in /  1016.8 hPa Calm   2.0 mph /  3.2 km/h 93 % 0.00 in /  0 mm
19:36 70.5 °F /  21.4 °C 68.4 °F /  20.2 °C 30.04 in /  1017.2 hPa Calm   2.0 mph /  3.2 km/h 93 % 0.00 in /  0 mm
19:41 70.5 °F /  21.4 °C 68.7 °F /  20.4 °C 30.04 in /  1017.2 hPa Calm   2.0 mph /  3.2 km/h 94 % 0.00 in /  0 mm
19:46 70.5 °F /  21.4 °C 68.7 °F /  20.4 °C 30.04 in /  1017.2 hPa Calm   2.0 mph /  3.2 km/h 94 % 0.00 in /  0 mm
19:51 70.6 °F /  21.4 °C 68.8 °F /  20.4 °C 30.04 in /  1017.2 hPa ENE 0.8 mph /  1.3 km/h 2.3 mph /  3.7 km/h 94 % 0.00 in /  0 mm
19:56 70.5 °F /  21.4 °C 68.7 °F /  20.4 °C 30.05 in /  1017.5 hPa ENE 1.0 mph /  1.6 km/h 2.0 mph /  3.2 km/h 94 % 0.00 in /  0 mm
20:01 70.5 °F /  21.4 °C 68.7 °F /  20.4 °C 30.04 in /  1017.2 hPa ENE 1.3 mph /  2.1 km/h 2.3 mph /  3.7 km/h 94 % 0.00 in /  0 mm
20:06 70.5 °F /  21.4 °C 68.7 °F /  20.4 °C 30.04 in /  1017.2 hPa ENE 1.9 mph /  3.1 km/h 3.5 mph /  5.6 km/h 94 % 0.00 in /  0 mm
20:11 70.5 °F /  21.4 °C 68.7 °F /  20.4 °C 30.04 in /  1017.2 hPa ENE 1.1 mph /  1.8 km/h 3.5 mph /  5.6 km/h 94 % 0.00 in /  0 mm
20:16 70.5 °F /  21.4 °C 68.7 °F /  20.4 °C 30.04 in /  1017.2 hPa ENE 2.1 mph /  3.4 km/h 3.5 mph /  5.6 km/h 94 % 0.00 in /  0 mm
20:21 70.6 °F /  21.4 °C 69.1 °F /  20.6 °C 30.04 in /  1017.2 hPa ENE 0.8 mph /  1.3 km/h 1.2 mph /  1.9 km/h 95 % 0.00 in /  0 mm
20:26 70.6 °F /  21.4 °C 69.1 °F /  20.6 °C 30.04 in /  1017.2 hPa ENE 1.8 mph /  2.9 km/h 3.5 mph /  5.6 km/h 95 % 0.00 in /  0 mm
20:31 70.6 °F /  21.4 °C 69.1 °F /  20.6 °C 30.04 in /  1017.2 hPa ENE 0.9 mph /  1.4 km/h 2.3 mph /  3.7 km/h 95 % 0.00 in /  0 mm
20:36 70.6 °F /  21.4 °C 69.1 °F /  20.6 °C 30.04 in /  1017.2 hPa ENE 0.9 mph /  1.4 km/h 1.2 mph /  1.9 km/h 95 % 0.00 in /  0 mm
20:41 70.6 °F /  21.4 °C 69.1 °F /  20.6 °C 30.04 in /  1017.2 hPa ENE 0.7 mph /  1.1 km/h 2.3 mph /  3.7 km/h 95 % 0.00 in /  0 mm
20:46 70.6 °F /  21.4 °C 69.1 °F /  20.6 °C 30.04 in /  1017.2 hPa ENE 0.2 mph /  0.3 km/h 1.0 mph /  1.6 km/h 95 % 0.00 in /  0 mm
20:51 70.7 °F /  21.5 °C 69.2 °F /  20.7 °C 30.04 in /  1017.2 hPa ENE 0.2 mph /  0.3 km/h 1.2 mph /  1.9 km/h 95 % 0.00 in /  0 mm
20:56 70.7 °F /  21.5 °C 69.2 °F /  20.7 °C 30.04 in /  1017.2 hPa ENE 1.5 mph /  2.4 km/h 4.6 mph /  7.4 km/h 95 % 0.00 in /  0 mm
21:01 70.7 °F /  21.5 °C 69.2 °F /  20.7 °C 30.04 in /  1017.2 hPa ENE 0.3 mph /  0.5 km/h 1.2 mph /  1.9 km/h 95 % 0.00 in /  0 mm
21:06 70.7 °F /  21.5 °C 69.2 °F /  20.7 °C 30.04 in /  1017.2 hPa ENE 0.3 mph /  0.5 km/h 1.2 mph /  1.9 km/h 95 % 0.00 in /  0 mm
21:11 70.8 °F /  21.6 °C 69.3 °F /  20.7 °C 30.04 in /  1017.2 hPa ENE 0.8 mph /  1.3 km/h 2.3 mph /  3.7 km/h 95 % 0.00 in /  0 mm
21:17 70.8 °F /  21.6 °C 69.3 °F /  20.7 °C 30.04 in /  1017.2 hPa ENE 0.5 mph /  0.8 km/h 1.2 mph /  1.9 km/h 95 % 0.00 in /  0 mm
21:22 70.8 °F /  21.6 °C 69.3 °F /  20.7 °C 30.04 in /  1017.2 hPa ENE 0.3 mph /  0.5 km/h 1.2 mph /  1.9 km/h 95 % 0.00 in /  0 mm
21:27 70.8 °F /  21.6 °C 69.3 °F /  20.7 °C 30.04 in /  1017.2 hPa ENE 0.3 mph /  0.5 km/h 1.2 mph /  1.9 km/h 95 % 0.00 in /  0 mm
21:32 70.9 °F /  21.6 °C 69.4 °F /  20.8 °C 30.03 in /  1016.8 hPa Calm   2.3 mph /  3.7 km/h 95 % 0.00 in /  0 mm
21:37 70.9 °F /  21.6 °C 69.4 °F /  20.8 °C 30.03 in /  1016.8 hPa ENE 1.1 mph /  1.8 km/h 2.3 mph /  3.7 km/h 95 % 0.00 in /  0 mm
21:42 70.9 °F /  21.6 °C 69.4 °F /  20.8 °C 30.03 in /  1016.8 hPa ENE 1.0 mph /  1.6 km/h 2.3 mph /  3.7 km/h 95 % 0.00 in /  0 mm
21:47 70.8 °F /  21.6 °C 69.3 °F /  20.7 °C 30.03 in /  1016.8 hPa ENE 1.3 mph /  2.1 km/h 3.5 mph /  5.6 km/h 95 % 0.00 in /  0 mm
21:52 70.8 °F /  21.6 °C 69.3 °F /  20.7 °C 30.03 in /  1016.8 hPa East 2.4 mph /  3.9 km/h 3.5 mph /  5.6 km/h 95 % 0.00 in /  0 mm
21:57 70.8 °F /  21.6 °C 69.0 °F /  20.6 °C 30.03 in /  1016.8 hPa ENE 1.4 mph /  2.3 km/h 2.3 mph /  3.7 km/h 94 % 0.00 in /  0 mm
22:02 70.8 °F /  21.6 °C 69.0 °F /  20.6 °C 30.03 in /  1016.8 hPa ENE 1.2 mph /  1.9 km/h 3.5 mph /  5.6 km/h 94 % 0.00 in /  0 mm
22:07 70.8 °F /  21.6 °C 69.0 °F /  20.6 °C 30.03 in /  1016.8 hPa NE 1.7 mph /  2.7 km/h 2.3 mph /  3.7 km/h 94 % 0.00 in /  0 mm
22:12 70.9 °F /  21.6 °C 69.1 °F /  20.6 °C 30.03 in /  1016.8 hPa ENE 3.4 mph /  5.5 km/h 3.5 mph /  5.6 km/h 94 % 0.00 in /  0 mm
22:17 70.9 °F /  21.6 °C 69.1 °F /  20.6 °C 30.03 in /  1016.8 hPa ENE 2.1 mph /  3.4 km/h 3.5 mph /  5.6 km/h 94 % 0.00 in /  0 mm
22:23 71.0 °F /  21.7 °C 68.9 °F /  20.5 °C 30.03 in /  1016.8 hPa ENE 2.9 mph /  4.7 km/h 4.6 mph /  7.4 km/h 93 % 0.00 in /  0 mm
22:28 71.0 °F /  21.7 °C 68.9 °F /  20.5 °C 30.02 in /  1016.5 hPa ENE 3.1 mph /  5 km/h 4.6 mph /  7.4 km/h 93 % 0.00 in /  0 mm
22:33 71.0 °F /  21.7 °C 68.9 °F /  20.5 °C 30.03 in /  1016.8 hPa ENE 3.5 mph /  5.6 km/h 9.2 mph /  14.8 km/h 93 % 0.00 in /  0 mm
22:38 71.0 °F /  21.7 °C 68.9 °F /  20.5 °C 30.03 in /  1016.8 hPa ENE 3.1 mph /  5 km/h 4.6 mph /  7.4 km/h 93 % 0.00 in /  0 mm
22:43 71.0 °F /  21.7 °C 68.9 °F /  20.5 °C 30.03 in /  1016.8 hPa ENE 3.7 mph /  6 km/h 6.9 mph /  11.1 km/h 93 % 0.00 in /  0 mm
22:48 71.1 °F /  21.7 °C 69.0 °F /  20.6 °C 30.02 in /  1016.5 hPa ENE 3.6 mph /  5.8 km/h 5.0 mph /  8 km/h 93 % 0.00 in /  0 mm
22:53 71.1 °F /  21.7 °C 69.0 °F /  20.6 °C 30.02 in /  1016.5 hPa ENE 3.0 mph /  4.8 km/h 4.6 mph /  7.4 km/h 93 % 0.00 in /  0 mm
22:58 71.1 °F /  21.7 °C 68.7 °F /  20.4 °C 30.02 in /  1016.5 hPa East 4.9 mph /  7.9 km/h 6.9 mph /  11.1 km/h 92 % 0.00 in /  0 mm
23:03 71.1 °F /  21.7 °C 68.7 °F /  20.4 °C 30.02 in /  1016.5 hPa ENE 4.6 mph /  7.4 km/h 9.2 mph /  14.8 km/h 92 % 0.00 in /  0 mm
23:08 71.1 °F /  21.7 °C 68.7 °F /  20.4 °C 30.02 in /  1016.5 hPa NE 4.8 mph /  7.7 km/h 6.9 mph /  11.1 km/h 92 % 0.00 in /  0 mm
23:13 71.1 °F /  21.7 °C 68.7 °F /  20.4 °C 30.02 in /  1016.5 hPa ENE 3.1 mph /  5 km/h 6.9 mph /  11.1 km/h 92 % 0.00 in /  0 mm
23:18 71.1 °F /  21.7 °C 68.7 °F /  20.4 °C 30.02 in /  1016.5 hPa ENE 3.8 mph /  6.1 km/h 5.8 mph /  9.3 km/h 92 % 0.00 in /  0 mm
23:23 71.1 °F /  21.7 °C 68.7 °F /  20.4 °C 30.02 in /  1016.5 hPa East 3.0 mph /  4.8 km/h 4.6 mph /  7.4 km/h 92 % 0.00 in /  0 mm
23:28 71.1 °F /  21.7 °C 68.7 °F /  20.4 °C 30.02 in /  1016.5 hPa ENE 3.5 mph /  5.6 km/h 8.1 mph /  13 km/h 92 % 0.00 in /  0 mm
23:33 71.1 °F /  21.7 °C 68.7 °F /  20.4 °C 30.02 in /  1016.5 hPa East 2.8 mph /  4.5 km/h 4.6 mph /  7.4 km/h 92 % 0.00 in /  0 mm
23:38 71.1 °F /  21.7 °C 68.7 °F /  20.4 °C 30.01 in /  1016.1 hPa East 4.0 mph /  6.4 km/h 5.0 mph /  8 km/h 92 % 0.00 in /  0 mm
23:44 71.1 °F /  21.7 °C 68.7 °F /  20.4 °C 30.01 in /  1016.1 hPa ENE 2.5 mph /  4 km/h 9.2 mph /  14.8 km/h 92 % 0.00 in /  0 mm
23:49 71.1 °F /  21.7 °C 68.7 °F /  20.4 °C 30.01 in /  1016.1 hPa ENE 4.4 mph /  7.1 km/h 9.2 mph /  14.8 km/h 92 % 0.00 in /  0 mm
23:54 71.1 °F /  21.7 °C 68.7 °F /  20.4 °C 30.01 in /  1016.1 hPa ENE 2.9 mph /  4.7 km/h 6.9 mph /  11.1 km/h 92 % 0.00 in /  0 mm
23:59 71.0 °F /  21.7 °C 68.6 °F /  20.3 °C 30.01 in /  1016.1 hPa ENE 2.9 mph /  4.7 km/h 3.5 mph /  5.6 km/h 92 % 0.00 in /  0 mm
Crab Meadow Weather
Compliments of Weather Underground - 3 mb

Script developed by  Jim McMurry - jmcmurry@mwt.net Adapted for the template by  Wim van der Kuil - Leuven-Template.eu

Recycling: To produce each week's Sunday newspapers, 500,000 trees must be cut down.